Location: Wilhelmshaven
(53.5279°N, 8.1063°E)
Time: 22:35:58
(UTC+02:00)

ISS - Pass Details

Date: 06 July 2022
Orbit: 412 x 420 km, 51.6° (Epoch: 19 August)

Event Time Altitude Azimuth Distance (km) Brightness Sun altitude
Exits shadow 04:03:06 - 255° (WSW) 2,002 -0.8 -7.1°
Reaches altitude 10° 04:04:20 10° 253° (WSW) 1,499 -1.4 -7.0°
Maximum altitude 04:07:39 60° 173° (S) 486 -3.7 -6.7°
Drops below altitude 10° 04:11:00 10° 93° (E) 1,506 -0.4 -6.4°
Sets 04:13:07 0° 89° (E) 2,373 0.7 -6.2°
